Location: La Comballaz
(46.3780°N, 7.0817°E)
Time: 18:22:18
(UTC+00:00)

ITAMSAT 1 - Visible Passes

Search period start: 30 November 2022 00:00
Search period end: 10 December 2022 00:00
Orbit: 784 x 795 km, 98.9° (Epoch: 30 November)

Date Brightness Start Highest point End Pass type
(mag) Time Alt. Az. Time Alt. Az. Time Alt. Az.
30 Nov 9.4 17:37:58 16° NNE 17:37:58 16° NNE 17:39:32 10° N visible
30 Nov 9.9 19:18:41 16° NNW 19:18:41 16° NNW 19:19:46 10° NNW visible
01 Dec 9.6 17:08:04 12° NE 17:08:04 12° NE 17:08:50 10° NNE visible
01 Dec 9.6 18:48:47 19° N 18:48:47 19° N 18:50:13 10° NNW visible
02 Dec 9.4 18:18:53 19° N 18:18:53 19° N 18:20:27 10° N visible
03 Dec 10.7 06:22:33 10° ENE 06:24:33 12° E 06:26:31 10° ESE visible
03 Dec 9.4 17:49:00 17° NNE 17:49:00 17° NNE 17:50:27 10° N visible
03 Dec 10.2 19:29:43 14° NNW 19:29:43 14° NNW 19:30:23 10° NNW visible
04 Dec 9.5 17:19:05 13° NNE 17:19:05 13° NNE 17:20:01 10° NNE visible
04 Dec 9.8 18:59:48 17° NNW 18:59:48 17° NNW 19:00:56 10° NNW visible
05 Dec 9.6 18:29:54 18° N 18:29:54 18° N 18:31:14 10° N visible
06 Dec 9.5 17:59:59 17° NNE 17:59:59 17° NNE 18:01:18 10° N visible
06 Dec 10.4 19:40:42 11° NNW 19:40:42 11° NNW 19:40:57 10° NNW visible
07 Dec 9.5 17:30:04 14° NNE 17:30:04 14° NNE 17:31:03 10° NNE visible
07 Dec 10.0 19:10:47 15° NNW 19:10:47 15° NNW 19:11:35 10° NNW visible
08 Dec 9.7 18:40:51 17° N 18:40:51 17° N 18:41:58 10° N visible
09 Dec 9.5 18:10:55 17° N 18:10:55 17° N 18:12:08 10° N visible
